Theta_e
304 304 304 304 305 305 305 304 305 304 303 300 296 297 297 296 292 302 306 309 306 301 294 295 292 292 294 296 295 297 295 295 295 295 296 295 295 297 297 292 291 290 292 290 290 291 288 289 289 291 292 292 293 294 293 295 294 297 290 293 290 292 288 286 285 288 289 290 290 290 287 290 291 291 291 291 289 291 290 289 287 285 282 282 283 280 287
303 303 304 304 304 305 305 305 305 304 303 298 298 297 294 295 295 298 305 308 306 298 287 287 290 293 293 297 295 296 297 295 293 295 296 297 295 295 294 291 294 292 291 292 290 293 286 290 291 289 291 291 291 289 293 295 294 295 292 292 296 288 289 289 283 283 286 288 291 291 292 292 291 291 292 292 293 290 287 285 286 285 284 286 284 280 287
303 303 303 303 304 304 305 305 305 304 304 302 299 294 294 294 297 297 301 306 304 294 297 292 290 291 292 294 292 294 295 296 296 297 295 296 296 295 292 294 294 292 293 293 294 294 293 288 291 293 291 291 293 292 292 296 296 296 297 297 297 290 289 288 283 280 278 278 280 283 286 288 291 289 290 291 291 289 286 285 285 284 285 285 285 285 292
302 302 303 303 303 304 304 305 305 304 303 302 298 293 293 289 285 291 295 299 298 298 297 297 292 291 292 292 293 295 293 295 297 298 297 296 296 297 296 294 296 293 292 291 291 290 290 291 289 290 289 289 291 292 292 291 295 294 295 294 296 288 288 290 289 287 285 287 289 293 294 290 287 289 289 289 291 292 293 289 286 284 286 283 288 290 290
301 302 302 303 303 303 304 304 305 304 303 301 296 292 291 290 286 286 286 294 295 294 296 294 294 291 294 289 293 291 294 295 295 299 296 298 298 297 296 295 292 291 292 290 290 292 290 290 291 290 289 288 291 291 292 291 293 293 294 295 292 287 288 289 291 291 292 294 291 291 295 291 291 290 288 290 289 288 287 287 286 291 285 282 289 292 288
301 301 302 302 302 303 303 304 304 304 303 301 298 287 288 285 287 289 292 290 287 288 289 295 294 295 294 292 294 292 292 293 292 295 297 298 298 296 295 295 297 293 291 292 288 290 290 291 288 289 290 291 291 292 295 292 292 292 294 295 292 289 288 291 290 290 291 288 290 291 293 294 293 292 290 288 289 288 286 287 292 290 286 285 291 292 289
300 300 301 301 302 303 303 304 304 304 303 300 295 288 287 288 286 288 291 288 289 293 293 295 294 293 294 292 293 291 292 291 295 295 295 296 294 297 291 293 294 294 294 292 289 289 286 286 289 287 288 290 290 288 291 293 293 294 292 292 292 291 288 290 289 289 290 287 288 290 293 289 290 291 291 291 289 289 290 291 293 292 291 293 293 291 291
298 299 300 301 301 302 303 303 304 304 303 298 292 289 287 285 286 285 288 290 291 293 293 293 293 290 294 290 291 293 293 292 293 294 295 291 294 296 294 293 293 293 293 293 290 291 292 292 288 290 290 287 290 290 292 290 290 292 291 292 292 291 288 290 288 286 287 288 287 289 290 290 288 289 291 290 290 290 291 292 293 292 292 292 289 290 290
298 298 299 300 300 301 302 303 303 303 304 294 291 289 290 290 290 290 288 286 287 291 293 292 291 290 291 290 292 292 293 292 295 293 296 294 292 294 293 294 293 295 295 294 293 295 294 294 295 294 293 289 293 292 290 294 289 290 289 290 291 291 287 291 288 285 284 286 286 287 288 287 287 287 288 289 288 287 289 289 293 291 289 291 289 287 289
297 298 298 299 300 300 301 302 302 302 303 294 292 288 290 290 290 290 290 284 286 287 290 292 291 287 291 292 292 292 292 294 295 292 295 296 297 297 295 295 295 293 294 293 295 296 296 296 297 297 296 297 294 295 296 295 292 288 290 291 290 289 288 285 286 285 284 282 284 285 286 285 283 285 288 290 290 291 292 292 293 293 294 289 286 288 294
298 297 298 298 299 300 300 301 302 302 301 294 292 289 289 290 288 288 289 285 285 286 288 289 289 290 293 293 291 293 293 293 294 290 289 295 295 298 298 296 294 292 293 297 300 300 299 299 299 300 299 297 296 296 296 296 296 293 291 288 288 290 290 288 289 284 282 279 283 286 283 277 279 292 295 293 290 290 289 289 291 293 295 292 294 295 296
297 298 297 298 298 298 299 300 302 302 301 299 299 292 292 290 290 288 286 285 283 284 286 285 287 286 291 293 293 292 292 292 292 295 292 291 294 296 298 297 295 289 297 301 300 300 301 303 301 301 298 297 297 297 298 296 295 295 297 292 288 287 289 288 286 285 281 280 282 281 276 279 291 293 297 295 294 293 292 293 293 293 294 295 294 295 293
297 297 297 297 297 297 298 299 301 301 302 301 300 294 293 292 290 287 286 284 280 284 284 283 284 286 289 291 290 289 291 292 292 293 294 294 292 294 295 296 295 295 300 298 301 299 293 288 289 290 291 294 295 296 296 295 295 296 295 296 292 288 288 288 285 286 283 280 282 276 278 287 290 293 289 293 294 293 292 290 293 293 293 294 293 295 296
297 297 297 297 297 297 298 298 300 301 301 301 297 296 296 295 290 288 286 282 281 281 283 284 285 286 287 287 287 286 288 288 289 292 291 291 293 292 292 294 295 299 299 300 297 294 288 289 287 288 287 288 287 287 290 293 293 294 294 295 296 293 289 289 285 287 281 282 282 282 287 286 289 290 289 290 288 288 289 285 289 293 293 294 293 294 296
296 296 297 297 297 297 298 297 298 300 301 301 298 297 297 297 294 290 287 286 280 281 282 283 285 285 286 285 286 286 286 287 289 286 286 288 288 288 291 292 291 295 297 298 290 290 288 288 284 284 285 284 280 283 288 287 289 290 291 293 294 294 289 291 287 284 287 283 280 281 281 279 285 294 293 294 295 295 295 291 289 297 295 295 295 294 295
296 296 296 296 297 297 297 297 297 298 301 301 298 296 297 298 298 295 291 286 283 279 282 286 286 286 285 284 285 286 285 286 285 286 286 285 285 289 290 289 290 292 293 291 289 288 287 285 283 283 281 283 286 284 280 287 286 288 290 291 293 293 295 289 288 287 285 283 281 280 278 282 291 292 294 295 295 297 295 289 286 295 296 296 295 295 296
295 296 296 296 296 297 297 297 297 298 300 300 295 296 295 298 297 295 291 288 286 281 285 285 286 285 285 284 285 285 285 286 286 285 283 285 285 284 287 288 289 292 290 291 287 286 284 284 285 286 285 285 284 283 286 285 284 284 288 289 288 288 289 289 286 285 286 284 282 280 284 284 291 293 293 294 294 298 292 282 284 296 294 296 295 295 295
295 295 295 296 296 296 296 297 297 297 299 300 297 295 294 297 298 297 292 289 284 283 287 287 288 286 285 286 285 284 285 284 283 285 284 282 283 286 287 287 289 291 292 288 286 285 285 285 283 283 283 285 286 288 281 285 284 283 284 286 286 287 286 287 284 285 286 285 284 286 287 290 293 292 291 291 296 295 286 281 290 293 295 295 295 294 296
294 294 294 295 295 296 296 296 297 297 298 299 295 295 294 296 298 297 293 288 286 283 289 288 289 287 286 287 287 286 286 287 287 284 282 283 284 285 285 287 290 287 288 286 286 286 285 284 285 285 284 283 283 283 287 284 283 286 288 285 285 286 287 286 287 285 284 286 284 284 288 291 291 289 291 294 292 285 285 293 289 294 293 292 294 295 295
294 294 294 294 295 295 295 296 297 296 297 299 296 291 292 295 298 297 292 286 287 286 289 287 288 287 287 288 286 285 286 286 286 285 284 284 284 286 287 285 287 287 286 287 285 286 286 284 285 283 283 284 285 285 282 283 285 285 286 289 286 286 285 283 284 287 287 286 284 283 279 288 291 291 290 292 288 291 296 291 287 289 291 292 291 294 294
294 294 294 294 294 295 295 295 296 296 297 298 297 292 291 294 296 297 297 292 286 285 286 292 292 290 289 287 287 289 289 287 286 286 285 285 286 288 282 281 286 287 285 287 284 284 285 284 283 283 286 287 286 285 282 283 281 285 287 288 288 290 285 285 286 290 283 284 281 282 289 291 294 295 291 291 295 295 292 295 291 289 290 292 292 292 293
294 294 294 294 294 294 295 295 295 296 297 297 296 293 289 291 295 297 297 296 289 285 287 290 291 291 292 292 292 290 290 290 290 291 287 285 285 286 283 280 281 286 287 285 283 281 282 280 282 280 280 280 281 284 283 283 280 281 280 285 284 291 289 289 287 291 288 287 289 291 289 292 294 292 292 295 294 289 291 293 295 292 291 290 292 292 291
294 294 294 294 294 294 295 295 295 295 296 297 297 291 289 291 292 295 295 290 292 292 291 290 291 292 293 293 294 293 293 291 291 290 292 289 286 287 286 287 285 287 286 287 287 286 286 284 282 285 280 281 283 281 277 281 282 283 284 287 288 285 288 286 288 289 288 288 289 289 288 290 292 290 289 289 290 289 289 291 291 292 293 290 292 291 290
294 294 294 294 294 294 294 295 295 295 295 297 296 291 289 291 293 294 293 291 286 284 288 289 286 283 285 287 292 292 291 291 293 293 291 292 286 284 286 288 287 285 285 287 287 289 283 283 285 283 283 284 283 283 281 279 280 283 285 286 286 286 286 287 288 287 288 286 289 288 290 288 290 291 288 286 286 289 289 290 292 291 290 289 290 290 290
294 294 294 294 294 294 294 294 295 295 295 296 296 294 292 290 292 293 288 282 282 282 277 282 284 289 291 293 293 291 292 294 294 293 293 292 292 287 285 288 288 289 287 286 286 287 285 284 280 279 280 285 286 284 284 283 282 284 283 285 284 286 290 289 287 287 288 289 287 286 285 285 286 287 290 292 291 288 287 288 289 289 289 289 289 290 290
294 294 294 294 294 294 294 294 294 295 295 297 296 291 291 290 293 293 292 288 286 283 277 276 280 289 289 290 289 293 293 292 292 293 293 294 293 293 290 289 287 287 286 285 288 287 284 282 279 279 282 283 286 283 280 282 282 283 284 286 288 288 290 286 287 287 288 287 286 286 287 288 288 287 287 290 291 289 286 286 287 287 287 287 287 289 290
293 293 294 294 294 294 294 294 294 294 294 296 294 292 291 290 293 292 289 287 283 278 280 277 280 284 286 287 291 290 291 292 292 291 291 292 292 291 291 289 288 288 289 286 283 282 279 280 282 283 284 284 284 281 281 281 282 280 280 285 285 286 286 286 286 283 284 287 289 288 287 288 292 289 290 290 286 287 286 285 286 287 286 286 285 284 285
293 293 293 293 294 294 294 294 294 294 294 295 293 291 291 291 291 293 293 291 284 277 278 278 279 281 284 282 287 288 291 292 292 291 291 290 290 291 291 289 288 286 285 285 281 281 281 281 281 283 281 282 283 282 283 284 281 278 278 283 286 287 287 287 286 286 285 291 291 291 293 293 293 295 292 288 286 287 286 286 286 286 287 286 285 283 283
292 293 293 293 294 294 293 294 294 294 294 292 288 288 287 290 291 293 293 294 288 276 276 278 280 279 277 282 287 287 289 290 291 291 290 288 289 289 289 289 288 288 286 285 283 280 278 281 284 282 283 286 285 282 283 278 278 279 284 285 285 288 289 289 290 290 290 290 291 290 290 291 290 286 287 287 287 287 287 287 287 286 286 285 285 286 284
292 292 292 293 293 294 293 293 294 293 294 288 287 285 283 285 290 290 293 292 286 287 280 277 274 278 280 279 280 282 285 287 288 288 288 287 287 288 288 288 287 289 287 286 284 281 283 282 280 282 283 287 283 282 279 278 279 282 288 286 287 287 286 288 289 289 289 284 285 288 288 283 281 282 284 285 285 287 287 286 286 285 284 284 285 283 282
292 292 293 292 293 293 294 293 293 294 293 287 286 280 277 274 282 292 293 290 289 286 281 282 277 281 277 279 282 283 285 287 286 286 286 286 287 286 285 288 285 289 285 285 285 284 285 281 281 283 283 286 285 280 279 276 276 279 285 287 288 287 286 287 286 286 285 281 280 279 281 281 282 284 283 283 283 284 283 282 281 280 280 280 279 279 278
292 292 292 292 292 293 293 293 293 294 289 287 283 280 280 281 287 290 294 291 290 285 281 276 278 275 275 281 280 282 286 285 284 286 285 287 283 285 285 288 284 288 287 284 285 285 283 284 283 282 283 287 287 275 279 279 278 279 285 284 285 286 287 286 284 282 282 283 284 285 285 283 283 286 288 285 282 281 281 279 276 275 273 272 272 272 272
292 292 292 292 292 292 293 293 293 293 287 290 293 294 294 294 293 293 294 291 288 283 285 279 273 277 275 275 278 277 283 282 280 282 281 284 283 284 282 285 284 284 290 286 280 280 284 285 283 282 284 289 281 277 280 279 280 284 286 287 286 284 284 284 283 283 282 283 287 287 287 286 285 285 280 282 280 278 277 274 272 272 271 270 268 268 267
292 292 292 292 292 292 292 292 293 292 291 287 282 284 289 293 294 294 292 290 286 285 281 277 275 274 272 279 275 278 285 281 278 282 276 281 280 283 281 283 284 283 284 282 283 284 281 281 282 283 286 280 280 280 277 280 284 285 286 286 287 285 284 283 282 282 282 282 277 275 277 277 279 279 278 278 275 275 273 272 271 271 270 270 270 269 267
291 291 292 292 292 292 292 292 289 287 282 283 284 287 291 292 293 294 292 287 279 276 277 276 279 274 273 270 269 276 281 280 276 280 279 279 282 281 282 279 281 280 280 287 282 283 282 281 284 282 279 283 280 277 279 282 284 285 285 285 281 283 280 281 282 282 280 276 276 277 276 277 279 278 278 276 274 273 271 270 272 273 271 271 270 267 266
291 292 291 292 292 291 289 288 283 283 281 282 283 290 293 293 293 292 291 285 282 278 277 276 278 273 275 271 270 273 283 277 278 276 275 277 278 278 278 279 277 280 284 282 278 282 280 285 283 277 283 279 276 280 282 284 284 285 285 285 283 283 284 284 285 281 276 274 273 274 274 275 278 280 276 274 272 272 271 271 271 273 273 271 268 267 266
291 291 292 291 288 285 282 282 285 284 282 287 290 293 293 291 285 285 284 283 280 282 276 276 274 274 277 274 275 273 280 273 280 275 276 277 277 276 276 277 275 281 277 275 279 279 282 289 281 278 278 276 279 285 285 285 285 285 285 285 286 284 284 285 286 281 274 272 271 272 273 274 274 274 273 272 271 271 271 271 271 272 272 270 268 266 265
291 291 287 283 281 278 276 280 281 283 292 291 290 283 280 282 278 280 281 278 279 282 273 273 272 274 272 275 271 279 280 273 277 275 274 275 276 271 274 277 276 281 270 274 279 285 280 279 278 277 278 282 284 285 285 286 286 287 287 286 286 284 283 283 281 278 275 272 272 271 269 270 272 272 273 271 270 269 270 272 273 274 274 273 269 266 264
289 284 282 283 280 277 277 278 289 292 289 286 283 278 276 278 275 272 271 276 277 274 278 277 273 274 275 275 274 280 277 276 273 272 273 279 275 270 275 271 277 278 269 274 274 285 274 274 276 277 276 280 280 282 284 285 286 286 287 287 287 284 282 281 280 281 280 281 282 280 278 278 276 275 273 273 272 271 272 272 272 271 270 270 267 264 262
283 279 278 278 278 281 285 288 293 288 283 278 275 276 271 273 273 269 276 270 270 273 278 271 278 274 275 275 275 275 281 276 271 271 274 274 281 272 273 274 275 273 264 271 273 283 274 272 275 275 274 279 280 283 284 284 283 284 284 284 285 283 282 280 280 282 284 284 285 284 282 283 284 283 277 274 273 271 270 269 270 268 267 267 264 262 261
282 281 280 278 280 279 283 284 282 275 275 273 273 272 266 265 269 269 271 267 269 269 273 275 276 271 275 273 277 275 281 279 274 273 274 273 278 275 270 268 277 269 266 271 275 273 271 272 273 273 274 280 281 282 283 282 283 283 284 283 282 281 279 279 279 280 281 282 283 284 282 281 282 282 280 276 275 274 272 270 268 266 264 263 261 262 262
284 284 282 283 281 278 277 275 274 276 273 273 271 267 269 267 268 264 267 267 268 269 268 272 271 274 273 276 276 279 274 271 277 277 274 270 278 271 270 269 268 266 267 274 269 261 269 267 271 272 277 279 281 281 281 280 281 281 282 282 281 278 277 277 278 278 279 281 283 283 282 280 280 281 279 277 275 275 274 269 266 263 262 262 261 260 259
289 286 284 276 273 273 274 274 272 272 268 268 268 264 265 263 265 268 266 270 265 265 267 270 272 281 276 274 272 273 275 280 277 273 272 270 278 270 266 265 265 263 269 269 268 267 264 264 268 274 279 279 280 279 279 279 280 279 278 276 275 274 276 276 277 277 277 278 280 282 281 280 279 279 278 276 275 271 267 267 266 263 261 259 259 258 257
283 282 275 267 272 272 274 266 272 267 264 264 267 263 265 264 265 262 262 267 264 267 269 272 273 275 271 277 276 275 273 276 277 267 266 268 270 267 269 262 265 270 269 264 266 265 266 266 272 276 278 277 277 272 271 274 276 276 276 274 267 268 271 272 272 272 273 272 269 266 264 267 268 266 268 271 272 271 268 263 261 260 258 258 257 256 256
276 271 269 268 267 272 271 264 269 265 264 263 270 267 267 264 265 264 269 268 269 272 271 272 274 274 274 271 271 273 277 269 273 271 267 270 265 265 264 265 266 263 264 265 263 262 263 264 272 271 271 271 272 271 270 272 273 276 277 271 266 267 269 270 272 273 273 271 270 267 266 264 264 265 266 268 267 268 265 262 258 257 257 257 256 254 255
274 271 270 268 266 269 267 265 265 262 266 268 265 265 269 269 268 268 269 266 270 270 273 274 274 274 273 272 274 274 273 269 269 269 267 265 266 265 267 268 267 263 261 262 264 266 268 272 275 274 273 273 273 273 272 271 268 264 268 272 276 271 267 269 270 270 271 268 263 262 264 261 263 264 263 261 261 261 262 259 257 257 257 256 255 254 254
273 271 267 266 267 266 265 262 262 265 268 266 265 269 271 271 270 271 267 265 273 274 275 273 274 274 274 271 270 270 268 269 269 269 267 260 263 266 268 266 264 263 263 261 262 262 266 271 273 273 273 273 272 272 272 269 262 263 268 271 271 269 265 265 265 266 265 261 261 261 261 260 260 259 258 256 256 258 257 257 257 257 256 255 255 254 254
271 271 267 263 263 265 264 266 263 260 259 264 268 268 267 268 270 268 266 264 269 272 273 272 271 270 270 268 270 272 268 262 269 268 268 268 266 261 263 265 263 265 263 264 267 267 270 270 273 274 274 274 273 273 271 268 263 262 264 267 267 266 264 263 263 263 260 259 260 260 259 258 257 257 258 257 254 255 255 256 256 257 257 256 254 253 253
267 263 264 262 261 263 264 263 267 271 266 256 255 264 269 271 271 272 262 257 269 274 273 273 268 271 265 268 269 269 266 269 266 267 267 262 261 263 263 258 261 261 264 267 271 272 273 275 274 272 270 266 263 261 263 262 261 262 262 262 262 262 261 261 261 259 257 258 258 258 257 256 256 256 254 253 253 254 255 255 255 255 255 254 254 253 252
266 262 260 258 259 261 259 258 265 266 261 258 261 265 265 271 270 263 258 262 259 265 273 274 274 272 266 267 264 265 262 261 264 265 262 264 261 257 258 255 259 263 266 265 266 270 272 265 257 261 262 257 256 256 256 257 257 258 258 258 257 257 257 258 257 256 256 257 257 256 255 254 256 256 253 254 254 253 253 254 254 254 254 254 254 253 252
264 262 257 253 262 265 263 265 267 264 261 264 265 265 264 268 266 264 257 260 266 271 268 268 268 263 262 260 263 261 265 266 262 260 264 264 261 259 262 264 265 265 268 271 269 260 252 249 252 253 252 254 254 254 254 254 255 255 254 254 254 255 255 255 255 255 255 255 255 254 254 255 256 255 254 253 253 253 253 252 252 253 253 253 253 253 252
265 264 261 254 249 249 252 257 258 258 260 259 262 256 258 261 257 257 257 261 269 271 269 265 264 262 259 259 264 264 263 261 259 260 258 261 260 261 258 267 272 270 269 268 259 251 250 249 249 249 249 249 252 253 253 253 252 252 253 253 254 254 254 254 254 254 254 253 253 254 254 254 253 253 253 253 253 253 252 251 251 251 251 252 252 253 252
Wind_Speed
14 15 14 11 11 12 13 14 16 15 12 3 2 2 3 3 5 2 2 3 7 10 6 3 4 3 0 4 5 3 3 3 2 4 2 2 1 3 2 6 6 3 4 5 7 14 7 11 10 5 7 5 6 2 10 11 14 7 2 6 3 2 4 4 3 2 2 2 3 2 1 1 2 3 0 4 9 8 3 1 4 5 4 2 1 2 3
13 14 14 13 12 12 13 14 15 14 12 2 1 2 4 3 5 4 3 3 2 9 12 11 10 4 1 3 5 3 3 4 6 2 3 3 3 4 4 2 3 5 2 6 13 11 5 4 7 4 1 3 2 1 9 18 10 12 10 11 9 4 3 7 4 2 1 1 1 1 1 1 5 6 5 3 4 7 3 3 1 1 7 7 5 6 5
12 13 13 14 14 13 12 13 13 14 15 6 1 2 3 5 3 5 2 2 2 10 2 8 9 6 8 7 9 5 3 3 1 3 6 0 3 5 2 1 5 5 2 4 2 8 2 4 4 3 3 1 3 4 4 12 11 1 1 5 10 4 5 8 6 6 7 6 7 9 8 12 5 1 2 7 10 9 6 5 4 5 3 9 5 9 1
10 11 12 13 14 13 12 11 12 12 12 11 4 2 3 1 7 1 3 3 3 4 2 4 9 12 10 7 4 3 6 2 1 1 4 1 3 3 5 1 3 5 7 5 6 9 3 1 6 8 4 2 2 2 3 0 1 5 4 8 12 2 0 8 11 12 9 11 12 1 7 6 6 12 15 11 9 7 2 3 2 8 4 6 9 8 1
9 10 11 11 13 13 11 10 11 10 9 5 3 4 3 1 4 4 6 4 3 1 1 9 10 10 11 6 6 5 6 6 4 2 2 4 2 3 2 5 7 3 9 8 8 9 6 2 5 6 7 1 0 2 2 2 4 3 2 8 7 2 4 7 9 13 12 3 4 5 9 12 14 12 9 10 11 10 8 10 10 6 7 8 10 10 8
7 8 9 10 11 12 12 11 9 10 9 5 3 4 4 3 1 3 2 1 9 9 6 9 11 6 8 4 4 7 11 6 6 2 3 2 2 4 2 1 1 14 14 9 6 7 5 3 5 2 2 6 0 4 3 3 3 3 3 1 4 6 8 7 7 11 4 3 5 7 7 8 8 10 9 12 13 13 14 14 13 11 11 13 12 10 12
6 7 8 9 10 11 12 11 10 9 9 4 3 4 2 3 2 1 3 3 3 1 6 9 13 14 9 3 6 9 12 10 4 5 4 1 3 1 6 8 4 7 4 8 7 11 7 5 2 4 4 6 5 3 4 1 2 1 3 4 1 6 7 7 8 12 6 2 3 3 9 5 5 9 13 13 12 15 17 17 13 14 13 12 4 12 16
4 6 7 8 9 10 11 12 10 10 8 5 7 3 2 1 2 1 2 3 5 7 10 9 11 11 7 8 5 8 9 11 4 1 4 7 4 0 4 8 5 6 6 3 7 12 8 8 10 5 9 1 2 5 3 6 2 2 5 4 3 6 4 9 8 6 6 4 2 2 2 7 7 4 6 11 13 14 16 16 15 11 10 3 2 2 8
4 5 7 8 9 9 11 12 11 10 6 5 4 2 2 2 1 1 4 5 1 4 8 9 10 9 6 9 5 5 8 9 6 4 2 1 7 4 7 9 8 3 6 5 2 2 3 6 9 15 16 13 9 8 5 9 9 5 3 2 2 3 1 3 4 6 4 2 5 4 3 2 2 5 8 12 14 15 14 13 12 10 11 9 4 7 13
3 5 4 7 8 8 9 10 11 10 6 4 2 3 1 1 1 2 1 3 1 4 5 7 8 8 9 8 9 6 12 6 7 6 3 3 3 6 10 7 9 4 8 6 4 4 4 4 4 7 4 5 6 3 5 10 11 7 7 3 4 6 5 4 5 7 4 3 1 5 4 2 3 8 14 19 18 14 11 2 2 13 16 12 7 17 8
3 4 5 6 7 8 8 9 9 10 5 4 3 3 0 2 2 1 1 4 1 1 6 7 11 0 7 4 6 3 6 9 7 10 3 2 2 1 9 8 8 5 5 4 4 7 9 9 10 7 9 9 8 5 6 6 3 7 11 3 0 5 7 3 3 6 2 3 4 4 5 8 11 11 14 13 16 17 11 10 13 13 11 10 13 9 7
4 6 5 5 6 6 6 7 9 9 5 1 2 3 1 1 2 2 2 3 2 1 1 3 4 1 10 9 6 8 10 12 11 4 7 2 3 1 5 6 7 4 2 5 8 8 8 4 8 9 10 11 10 9 7 7 3 3 1 8 5 7 5 3 1 2 2 2 3 6 10 12 8 3 6 16 13 10 13 15 18 15 13 12 12 9 6
4 3 5 4 4 5 6 6 7 7 6 4 3 3 1 2 2 2 3 3 1 0 3 1 1 2 4 9 7 4 4 4 5 8 6 8 4 2 1 4 7 4 9 11 6 6 7 4 5 3 5 5 6 6 6 5 4 3 3 2 7 7 8 3 1 3 4 2 5 7 9 2 1 2 3 3 6 9 12 13 9 7 12 13 14 15 11
4 4 3 2 4 4 5 5 7 6 6 4 4 3 1 1 3 2 2 3 2 2 2 5 3 5 7 7 9 6 9 8 5 6 6 4 7 6 2 2 1 8 11 7 7 8 4 2 3 1 2 3 3 2 1 3 4 1 3 1 1 8 3 4 4 3 5 5 9 4 7 7 3 5 5 11 11 10 12 8 12 14 11 14 16 17 10
7 4 2 3 2 3 3 3 4 7 7 6 4 3 4 4 2 2 1 4 3 1 1 3 3 5 7 3 4 7 5 5 9 3 1 1 5 1 1 2 3 3 2 9 3 3 2 3 4 5 3 4 6 7 2 1 0 4 3 2 2 6 9 5 7 4 2 3 3 1 4 10 12 3 3 4 6 13 15 12 10 7 14 15 15 15 14
4 5 4 3 3 2 2 2 2 5 8 6 5 4 3 3 2 3 3 3 3 2 2 2 3 4 4 3 1 6 5 5 5 4 3 3 1 1 2 1 2 1 3 4 3 5 3 6 6 9 7 9 2 5 3 3 2 1 4 2 6 4 3 1 5 3 4 4 6 7 8 12 2 6 9 8 4 8 6 3 10 8 12 12 15 15 9
3 4 4 3 2 3 3 0 2 4 8 4 2 2 3 4 3 3 3 3 2 1 3 2 3 5 6 3 2 3 1 4 5 7 4 4 2 0 2 2 1 2 2 6 2 4 5 4 2 5 0 3 7 6 5 5 5 2 2 3 3 4 2 3 5 3 5 7 8 8 4 5 3 7 4 8 9 10 8 5 8 2 9 11 13 13 12
2 2 3 3 3 1 3 4 2 1 6 7 4 3 2 3 2 2 4 3 2 1 1 3 3 2 2 2 3 2 4 4 4 2 4 2 3 1 1 1 2 2 1 7 3 4 7 7 10 8 7 1 0 5 9 7 7 8 10 10 6 4 1 4 12 9 8 8 5 4 5 2 4 6 5 7 10 12 9 13 4 8 11 12 13 15 18
0 1 1 2 2 2 2 3 3 3 5 10 6 5 2 2 2 4 4 2 2 2 2 1 3 3 1 3 4 3 1 2 2 5 4 3 1 2 3 1 1 3 1 4 2 4 7 5 2 1 4 3 0 7 3 8 5 2 11 9 4 6 5 3 5 10 9 8 9 8 5 3 5 3 7 9 7 8 13 6 1 9 6 3 8 12 8
2 1 1 1 1 2 1 3 3 2 5 7 5 3 0 2 2 3 3 1 2 1 2 2 2 2 2 2 3 2 1 3 2 3 3 5 1 3 3 2 1 2 1 1 5 2 3 6 5 1 1 3 4 2 1 1 2 7 5 12 10 10 9 8 10 6 2 2 5 4 10 4 10 12 3 3 5 4 4 4 0 1 2 6 5 6 7
4 3 1 2 1 1 1 1 3 4 5 5 4 4 2 3 3 3 3 4 2 3 1 2 3 4 3 4 4 3 2 2 4 3 2 2 2 4 6 3 4 2 4 5 6 4 3 2 2 2 1 2 3 2 3 3 1 6 2 6 3 6 6 4 6 9 9 11 11 8 3 7 12 16 9 9 11 2 3 5 3 1 2 4 4 4 6
6 5 4 3 3 2 2 1 2 4 7 7 3 4 3 2 2 2 3 4 3 1 1 2 2 2 1 2 2 3 3 2 2 1 4 1 2 0 0 3 2 1 1 2 2 2 2 1 2 2 3 1 2 5 1 4 4 3 4 0 5 8 9 4 7 6 8 7 8 2 2 10 5 3 4 4 2 4 2 0 1 6 5 3 2 6 5
8 8 6 5 4 3 3 2 2 3 5 10 5 3 4 3 1 2 3 4 2 3 2 1 1 0 0 1 2 1 1 2 3 3 3 3 1 1 1 0 0 0 0 1 1 1 1 3 2 0 1 1 6 4 2 0 1 4 7 3 1 4 1 0 2 3 1 4 1 2 2 2 5 1 1 3 3 2 1 3 2 5 3 6 5 5 7
9 10 9 8 6 4 4 3 4 3 5 10 6 4 2 4 5 5 4 3 1 1 1 3 2 2 3 6 5 2 3 1 3 1 0 2 2 1 1 1 1 1 1 1 1 0 2 1 1 1 3 2 3 3 7 5 3 2 1 1 1 1 2 1 2 0 7 8 8 6 2 2 3 4 0 2 2 2 0 2 3 1 3 3 1 5 8
10 10 10 10 8 7 6 5 5 5 5 10 6 4 5 3 1 5 5 5 2 3 2 1 4 2 1 1 5 4 3 1 3 4 4 5 2 1 2 2 0 1 2 1 1 1 1 1 1 1 4 2 3 6 1 2 3 4 4 2 1 3 5 3 3 4 9 4 1 1 2 4 3 2 3 4 4 3 1 1 1 3 3 3 5 6 8
12 11 11 11 11 8 7 6 6 6 6 12 11 6 5 4 4 3 5 4 2 2 1 1 1 3 3 2 1 1 2 5 5 3 2 3 3 4 8 3 3 4 4 1 0 2 1 2 1 0 2 2 0 2 0 2 0 2 3 3 3 0 7 4 5 5 2 4 3 1 1 3 5 6 7 6 2 3 2 2 4 5 8 7 6 2 5
11 13 12 12 11 10 9 8 7 7 7 12 7 5 5 3 6 8 6 6 5 1 1 2 1 1 2 3 1 2 3 4 4 5 4 4 5 4 5 6 6 2 3 3 3 2 2 2 1 1 1 0 1 0 0 0 1 2 2 3 2 2 6 2 3 2 3 9 6 7 2 3 5 10 14 11 5 4 5 5 5 6 9 8 10 6 4
9 11 13 12 11 11 11 9 8 7 8 10 6 5 3 5 5 7 4 6 3 2 2 2 2 3 1 3 3 3 2 5 7 6 5 4 4 6 6 5 4 2 1 1 0 1 0 1 2 1 1 2 0 1 3 1 1 1 2 4 5 7 5 5 5 6 6 7 4 8 8 4 4 4 5 8 8 7 8 9 10 7 5 8 13 11 7
8 8 10 12 11 11 11 11 8 7 9 12 4 4 1 1 1 2 3 2 4 4 3 1 0 2 2 4 3 1 2 1 5 6 6 5 6 6 6 6 5 4 3 2 1 1 1 1 2 2 2 2 2 1 2 2 2 7 7 4 3 6 4 8 7 4 4 3 1 5 5 6 1 5 1 4 6 8 6 5 4 8 10 8 6 12 17
9 9 10 12 10 10 11 11 10 8 15 6 4 2 1 2 3 4 3 3 3 4 3 2 2 3 1 3 1 1 0 1 1 2 6 6 6 5 5 6 4 4 2 3 2 3 2 1 1 2 2 2 2 1 2 1 6 8 5 4 8 5 3 4 1 2 3 2 1 1 2 3 2 3 3 2 3 4 6 7 8 8 5 3 6 5 2
11 10 10 11 12 11 11 11 11 12 12 4 3 3 3 3 2 5 7 6 4 3 2 0 2 1 2 2 1 4 4 4 4 4 4 4 4 4 1 3 0 4 3 2 2 3 1 1 2 2 1 3 2 1 2 1 3 4 12 9 10 8 7 6 4 2 2 4 3 3 4 3 1 3 1 3 5 6 5 4 4 4 5 6 4 4 7
13 12 11 12 11 11 12 11 12 10 7 6 6 4 4 5 3 8 12 10 8 3 2 3 3 1 2 1 2 2 5 3 2 2 2 4 1 1 1 2 2 3 4 3 2 2 4 4 4 3 4 6 5 1 1 5 10 13 8 5 3 4 3 3 3 3 2 5 7 4 3 1 3 6 4 8 6 3 4 6 6 7 7 7 7 7 7
14 13 13 12 12 12 13 12 12 7 6 6 4 4 4 6 6 10 8 9 5 1 3 2 3 2 1 4 1 1 3 3 1 1 2 2 4 2 2 1 1 1 3 3 2 4 2 5 3 6 6 4 4 2 5 11 13 15 15 10 7 3 4 1 0 1 3 5 4 8 6 6 8 11 1 4 6 5 7 9 7 7 9 10 11 10 8
15 14 14 13 12 12 13 13 13 11 6 4 1 4 2 7 7 12 10 5 2 1 2 2 3 2 2 1 4 3 5 6 4 4 3 0 2 4 4 4 3 4 4 6 3 2 1 1 7 5 4 1 1 2 10 12 17 20 18 14 8 5 5 5 5 7 6 4 1 1 1 4 5 6 7 6 6 5 6 6 9 12 10 10 9 6 8
17 15 14 14 13 12 12 11 2 2 3 3 1 1 5 8 7 13 12 6 4 0 1 1 1 4 3 2 2 4 2 2 2 3 5 2 1 3 3 5 3 7 3 4 1 5 6 6 3 7 9 5 6 9 7 14 19 18 17 10 6 8 5 9 12 9 3 3 4 2 2 0 5 6 8 9 8 9 10 8 8 12 13 8 8 9 8
17 16 14 13 12 8 1 4 1 4 3 4 2 8 15 12 11 7 8 1 2 3 3 3 5 5 6 7 4 3 4 3 0 2 0 2 1 1 2 3 5 5 0 3 5 7 8 6 6 8 6 10 10 8 11 15 17 17 14 14 11 14 13 16 12 6 6 3 2 1 2 1 5 5 2 2 4 5 7 9 8 3 3 8 9 9 7
18 16 15 8 5 1 3 3 2 3 3 4 7 13 16 10 6 3 5 3 3 0 3 3 3 6 9 4 1 1 3 5 1 1 0 2 4 0 2 2 5 2 3 1 6 12 7 5 6 6 10 11 9 13 15 14 15 16 18 15 12 9 10 9 12 9 6 4 3 1 1 2 2 1 6 8 8 6 7 11 13 15 17 18 13 12 11
19 16 4 3 4 3 1 3 3 5 11 17 10 6 4 2 3 3 2 1 3 2 1 2 1 2 2 3 5 5 7 4 2 5 1 2 2 1 1 2 4 4 3 4 7 4 1 4 5 9 12 11 10 11 10 13 13 15 15 12 9 9 12 12 7 9 8 4 4 4 1 1 5 7 10 12 12 14 18 17 12 11 5 8 12 12 11
14 2 3 4 4 4 5 3 7 16 9 3 3 2 1 1 2 1 2 1 0 2 3 5 6 3 4 6 4 2 3 5 3 2 5 5 4 3 1 2 5 2 2 2 4 7 4 3 4 7 9 7 10 12 12 12 12 14 14 13 10 9 10 10 13 17 15 15 15 14 15 13 14 15 13 12 9 8 4 5 8 9 6 8 11 11 11
4 4 4 4 6 4 3 8 19 11 3 3 1 2 2 1 3 3 2 3 0 1 3 6 5 5 7 10 8 6 2 3 5 4 4 1 0 4 1 3 4 3 3 4 4 4 5 5 5 6 8 9 12 11 11 12 13 13 11 11 10 9 10 13 12 13 17 16 15 13 14 16 16 15 14 15 15 16 13 11 10 8 8 10 12 16 19
5 3 4 5 3 2 1 5 4 4 2 2 1 1 1 1 2 0 2 3 2 2 1 3 3 2 4 3 6 7 1 4 1 2 2 4 3 5 2 2 4 3 3 5 2 3 1 3 5 7 6 9 12 12 12 11 12 14 13 11 8 6 6 9 12 14 13 13 12 11 12 16 16 14 13 18 18 18 18 18 16 14 12 13 18 16 8
7 6 3 5 3 2 3 4 2 3 1 0 3 3 3 2 1 3 1 5 5 2 2 3 4 9 8 9 8 5 3 0 1 1 2 2 2 4 3 0 3 4 3 3 2 3 1 2 4 6 5 10 13 11 10 9 12 11 12 11 9 6 7 10 13 13 13 15 15 14 13 14 16 14 12 13 15 17 15 12 11 10 14 9 9 10 9
12 12 6 3 2 1 1 3 2 2 5 2 2 2 1 3 2 4 2 1 2 2 4 2 1 2 3 2 2 0 3 1 2 1 2 3 1 3 2 1 2 2 4 2 2 2 3 3 4 7 8 10 11 10 8 8 8 6 6 6 5 5 6 8 10 11 10 11 13 13 10 11 14 14 11 12 13 10 6 9 16 15 12 13 14 12 9
5 3 3 1 2 2 2 5 2 4 1 0 6 7 3 3 2 1 2 3 2 1 2 6 5 6 3 2 5 2 2 1 2 2 1 1 3 2 2 2 3 4 4 2 1 3 5 3 7 8 10 9 7 4 4 6 7 7 8 7 2 2 6 6 5 5 9 9 8 9 6 6 7 2 2 7 13 18 15 10 9 12 11 11 12 13 12
5 2 2 2 1 2 3 3 2 3 6 4 3 4 4 9 6 5 6 3 3 5 3 3 5 5 6 2 3 1 1 2 2 4 4 3 1 1 3 3 2 1 3 3 0 1 1 3 5 7 6 5 6 6 6 6 6 9 8 4 3 5 5 8 12 12 12 10 12 10 9 8 5 6 6 7 7 6 14 16 15 16 14 13 12 13 12
4 5 3 3 3 1 2 1 2 1 1 2 3 5 7 7 6 6 4 2 4 3 8 7 5 5 4 1 6 5 2 2 2 1 1 2 3 3 3 0 3 2 1 1 4 8 8 7 7 7 6 9 8 8 7 9 6 1 1 7 12 9 10 10 10 9 10 7 3 5 7 3 6 8 8 5 6 8 8 10 12 14 15 17 18 16 13
2 2 2 1 3 1 1 2 4 4 4 4 4 6 6 8 6 4 3 3 6 8 7 3 5 4 9 4 2 2 1 0 2 2 4 2 2 1 3 2 2 2 4 5 5 4 4 5 5 6 8 9 10 10 9 7 4 5 9 10 9 6 5 7 8 9 7 4 5 6 7 7 5 3 4 6 6 6 9 12 11 11 11 14 14 11 11
3 1 3 2 3 3 5 5 2 1 1 2 5 5 2 4 6 2 2 0 3 6 8 6 3 1 3 2 2 3 2 0 3 3 2 3 2 3 1 1 1 2 2 4 7 3 4 3 5 7 9 10 10 9 7 6 4 6 8 9 10 9 7 8 9 9 6 9 9 8 6 6 6 8 8 9 6 6 7 9 10 10 10 10 11 13 15
3 3 2 2 1 2 2 2 6 7 3 1 1 4 6 7 7 6 3 0 5 9 6 7 4 4 1 0 3 1 1 2 3 3 2 2 2 3 3 4 3 4 4 5 5 4 5 7 7 6 5 3 4 6 5 6 6 5 5 7 8 7 5 6 6 4 4 6 6 7 7 6 7 7 6 9 13 8 7 8 8 7 8 13 15 13 12
3 1 2 4 2 4 1 1 2 4 1 1 1 5 5 8 7 3 0 2 1 5 2 4 1 3 2 3 1 1 1 1 3 0 3 3 3 1 4 2 3 5 3 3 4 7 5 2 6 5 5 6 6 7 8 8 6 6 5 4 5 4 3 3 3 3 5 6 6 7 7 8 8 8 11 12 8 7 7 6 6 8 8 8 11 13 13
2 2 1 1 2 4 6 9 13 9 4 7 8 8 7 9 6 6 0 2 4 5 3 3 3 3 2 1 1 3 3 2 3 2 5 4 2 4 4 6 5 5 5 4 2 2 4 5 3 5 8 6 5 7 6 6 6 5 3 2 2 1 1 0 2 3 3 2 4 7 9 9 7 7 8 9 10 10 8 5 4 5 7 7 7 10 12
2 3 2 1 1 2 1 1 4 1 3 1 4 1 1 3 0 1 0 2 5 8 7 2 4 2 2 3 5 2 1 4 1 1 1 4 3 4 4 7 9 6 4 1 1 2 2 2 1 3 4 5 5 6 7 6 5 3 2 1 1 2 3 3 3 4 4 5 5 6 6 6 9 9 8 10 11 10 10 8 6 5 6 6 5 6 9
Wind_Direction
45 46 44 49 59 51 51 48 32 23 19 64 45 257 70 68 93 106 114 95 174 151 157 70 160 186 124 65 65 73 84 116 181 149 265 107 337 92 84 175 127 308 131 169 157 165 172 171 200 184 211 215 198 259 165 140 161 141 71 58 211 84 107 94 44 85 283 291 236 166 215 285 269 260 199 163 200 201 228 294 133 161 123 176 187 231 249
46 46 46 46 49 53 50 50 43 23 24 60 324 75 83 79 108 82 35 86 9 172 176 178 184 135 141 95 94 3 119 141 139 199 162 133 167 139 145 61 325 141 130 146 173 179 147 248 186 214 167 183 39 224 161 158 164 164 187 175 186 162 209 121 125 96 120 261 133 177 145 175 229 221 181 224 64 77 106 103 355 192 204 183 177 232 246
51 46 46 43 44 48 47 49 45 32 13 4 193 99 148 123 61 49 49 33 133 196 228 182 149 147 144 138 142 140 88 355 60 143 149 123 132 119 148 164 150 113 144 111 118 187 162 147 238 79 199 75 3 354 187 183 179 51 89 62 155 187 154 151 158 157 170 188 204 202 207 209 193 352 120 190 174 149 137 191 178 228 163 185 204 236 235
52 51 48 47 45 46 49 50 48 40 24 9 59 357 77 16 121 176 57 3 42 19 319 158 156 154 149 126 159 130 117 75 73 91 82 221 107 23 118 20 103 108 135 131 154 189 316 162 174 177 166 144 22 325 298 355 143 341 136 150 147 159 216 194 181 190 194 197 202 220 73 84 175 209 187 178 196 176 151 56 143 216 171 185 220 238 82
53 52 49 52 49 47 46 48 46 42 34 38 95 33 52 26 87 143 148 67 354 130 64 151 160 177 162 140 157 150 128 131 105 320 143 202 167 95 23 167 148 188 159 156 174 184 145 352 118 166 129 311 82 349 141 108 13 337 100 157 100 85 187 212 211 208 210 186 122 197 170 181 204 168 174 164 161 177 180 196 214 150 98 238 233 202 220
50 49 50 49 52 51 46 44 40 34 27 22 70 55 6 90 31 15 331 173 172 148 201 171 165 155 180 128 129 136 140 161 144 89 4 93 243 128 33 39 331 166 169 143 146 152 140 104 146 94 43 108 323 85 13 161 319 330 141 280 130 146 206 208 197 229 184 86 151 153 161 198 179 182 161 164 174 168 193 213 218 135 203 227 232 162 218
49 49 47 45 46 52 47 41 37 25 25 43 85 84 336 54 97 20 325 102 23 91 101 152 158 163 160 74 157 161 160 164 150 148 132 129 193 295 148 189 162 159 133 158 153 161 147 218 165 175 156 158 136 105 74 277 42 79 121 139 244 135 217 179 187 216 173 177 156 222 171 135 155 177 178 181 165 190 200 215 208 188 217 229 112 177 218
58 51 48 47 46 47 44 39 33 22 16 60 67 32 99 79 108 106 348 44 102 124 136 139 146 163 164 151 213 169 168 151 137 80 144 157 189 3 115 130 99 132 127 102 161 193 196 173 164 209 136 102 192 176 193 141 25 357 154 155 263 179 197 149 161 210 211 145 68 70 181 156 173 194 179 174 185 197 208 216 220 215 253 274 157 273 250
82 58 53 49 49 46 44 39 31 18 18 55 68 61 17 85 38 87 124 101 5 144 149 150 156 155 188 184 172 161 175 163 147 108 359 90 149 159 135 127 104 71 87 78 101 178 136 173 185 172 165 177 191 162 223 159 150 168 136 180 122 208 174 50 138 195 212 128 161 130 97 62 138 161 182 196 195 205 210 215 207 187 210 210 229 270 256
92 80 62 54 50 46 46 45 32 15 24 101 108 75 218 84 112 114 59 91 309 147 151 153 136 188 192 179 172 180 181 140 138 92 353 56 105 144 135 147 109 107 105 108 154 152 106 103 88 118 26 68 77 30 137 163 156 165 171 143 147 174 137 156 172 197 194 26 168 133 109 97 249 224 206 200 202 204 208 202 191 204 206 209 195 232 228
6 106 86 59 55 49 50 52 40 29 37 78 88 102 255 73 111 81 38 104 42 47 151 167 175 279 147 158 129 36 133 152 178 170 163 103 23 157 126 115 109 117 113 124 84 119 102 95 85 73 67 63 71 64 87 68 131 165 158 124 136 143 167 167 165 208 126 359 140 133 136 214 223 220 208 171 191 202 184 195 211 213 196 213 212 235 116
66 45 32 81 63 59 51 61 58 46 54 47 93 94 117 164 131 76 94 129 121 344 116 151 166 164 168 167 148 163 163 177 188 204 135 97 117 185 119 93 108 110 200 96 115 123 125 86 58 52 55 55 56 51 58 88 58 13 288 167 150 161 173 161 190 154 139 177 168 148 215 229 229 12 142 194 199 160 185 211 211 204 206 227 240 234 184
124 90 65 22 90 71 59 61 64 56 40 26 57 88 132 198 106 98 109 105 109 110 102 89 302 41 113 127 95 46 127 126 83 98 74 118 120 72 60 147 154 138 141 151 151 79 73 85 51 49 30 30 33 46 51 56 66 39 57 58 148 156 167 132 137 99 74 137 173 211 225 223 20 209 27 9 137 189 201 240 240 217 211 214 229 231 207
107 115 114 70 54 63 74 58 72 74 52 45 65 60 77 312 36 62 80 97 85 16 65 92 43 81 82 98 112 123 105 91 65 69 98 4 119 125 48 357 2 159 161 134 84 91 68 26 69 92 3 30 21 8 303 78 20 51 98 120 170 162 110 174 163 197 180 180 198 233 10 322 185 232 199 170 167 158 177 217 236 207 199 203 223 234 219
124 108 117 107 86 64 70 93 94 86 82 72 70 51 42 19 51 99 173 79 119 71 320 138 147 111 108 77 114 114 106 141 121 64 31 69 73 328 86 346 336 139 163 130 78 65 126 124 144 166 165 159 186 205 79 220 39 29 340 359 174 173 184 190 183 205 160 145 192 241 241 253 235 185 65 194 165 172 186 200 252 197 201 200 210 223 217
78 101 97 117 137 122 91 106 119 124 108 80 65 71 40 8 15 60 66 122 123 109 224 244 122 133 102 94 2 115 140 126 120 104 74 34 4 21 56 5 319 324 62 69 108 119 149 177 189 186 199 190 176 95 235 150 209 4 14 66 110 30 55 151 204 164 149 189 198 199 208 232 60 155 184 177 164 139 110 175 257 222 188 193 202 219 200
104 99 100 107 103 146 150 104 122 121 130 107 97 41 44 355 7 29 54 47 55 134 6 67 109 103 108 83 96 80 57 123 147 129 144 135 112 303 327 6 323 65 122 108 110 121 152 175 183 205 256 150 168 197 110 171 152 150 88 62 107 118 151 141 200 186 196 191 211 224 204 251 181 178 173 156 144 130 134 213 247 174 127 191 196 204 206
98 99 93 92 114 149 130 163 199 160 136 120 99 82 39 340 341 54 46 56 105 76 302 195 127 118 135 178 131 81 93 91 52 37 82 108 77 127 176 43 97 317 303 129 170 151 171 175 177 181 189 181 215 139 201 162 187 174 165 172 159 159 179 207 204 197 206 201 233 267 262 244 174 179 162 149 165 154 186 212 234 153 179 185 183 196 208
47 181 155 112 91 114 155 158 159 218 141 108 82 70 29 340 342 62 89 64 61 133 53 54 350 62 31 54 67 147 184 128 142 106 126 101 247 197 144 220 138 156 338 148 139 182 174 176 42 140 158 187 209 190 136 178 187 105 150 147 164 191 166 204 202 207 198 194 214 225 278 224 145 18 144 173 136 203 216 217 44 172 182 211 190 202 199
269 304 181 148 130 89 118 153 158 194 121 139 93 110 111 357 318 65 101 111 50 90 49 39 6 51 318 77 130 112 79 51 5 99 161 142 137 97 90 180 315 100 102 169 177 219 186 184 170 147 150 157 201 127 56 260 27 156 169 182 182 171 171 182 187 197 205 198 216 223 246 212 119 119 81 288 209 243 119 137 317 351 210 159 187 184 177
232 246 248 239 208 155 87 146 162 181 156 151 104 107 75 340 8 12 76 124 109 122 73 42 76 61 32 49 11 360 71 149 159 123 174 81 199 178 182 210 154 149 173 169 193 175 198 155 133 173 221 153 175 86 202 145 201 282 139 186 191 164 181 174 212 188 189 188 201 213 240 83 168 150 190 192 221 78 187 145 167 224 204 197 155 210 179
237 235 241 239 222 201 202 169 189 181 164 159 156 88 94 312 359 1 29 65 78 77 63 91 40 78 72 95 136 136 91 72 177 67 127 119 8 3 155 103 120 127 170 104 60 45 2 118 47 108 166 177 355 203 208 152 191 155 351 105 184 200 202 177 202 161 197 204 218 199 185 161 187 52 5 232 177 27 166 49 50 153 220 199 236 183 171
242 239 238 236 229 222 208 195 205 185 176 158 155 104 142 149 137 325 56 77 41 49 37 348 78 181 336 224 183 194 165 16 109 51 75 100 103 36 112 145 126 251 50 339 232 147 158 134 192 94 53 244 175 173 5 248 198 145 171 239 332 358 145 47 108 220 335 310 224 35 54 247 229 112 30 316 332 37 87 169 161 230 204 178 180 153 151
243 242 237 232 231 223 215 207 201 199 182 156 175 126 133 169 152 116 65 71 100 146 17 17 44 285 219 247 182 121 96 88 253 315 174 324 118 114 338 261 173 87 27 8 294 330 175 99 178 76 206 221 95 199 194 220 223 172 75 139 255 244 114 123 196 153 164 234 198 175 177 335 291 266 227 212 253 248 22 270 274 319 137 153 98 158 153
237 240 237 233 229 222 212 207 203 200 201 164 151 59 86 85 281 150 132 132 148 157 188 149 211 242 299 299 77 102 216 201 120 123 67 50 76 110 132 76 274 55 118 201 209 82 59 130 181 91 191 242 167 221 48 178 224 159 182 195 95 241 182 197 195 183 201 238 39 328 331 259 268 246 279 266 220 203 215 280 1 103 91 93 121 124 123
239 235 235 233 229 225 219 213 207 200 213 156 147 147 158 184 168 112 89 67 75 104 181 221 279 354 332 56 300 222 150 129 147 124 103 142 115 111 131 147 66 26 96 83 337 58 115 60 72 67 185 206 7 235 335 259 27 9 241 206 188 68 138 208 173 198 275 335 234 260 266 252 226 217 236 239 214 163 100 106 115 125 118 115 85 43 140
245 236 232 230 230 229 223 222 213 205 205 159 150 145 150 122 164 164 157 158 135 30 243 191 265 304 25 204 279 24 122 147 110 131 116 123 120 96 108 115 101 80 69 69 30 98 59 79 79 195 218 355 70 193 94 57 150 167 196 219 143 123 198 141 113 187 225 221 191 144 167 224 203 211 216 211 159 143 129 138 142 152 143 143 124 92 41
245 241 232 227 227 229 229 218 221 203 207 151 138 125 134 145 185 193 164 178 166 166 135 125 137 244 14 334 294 311 298 160 167 157 147 146 146 140 133 128 121 114 135 103 9 70 89 160 210 77 23 289 112 245 142 54 80 339 246 220 190 206 178 154 193 194 219 227 179 182 219 269 243 247 179 139 164 157 164 181 174 175 173 156 131 118 103
239 241 240 228 219 222 223 225 213 213 128 112 102 87 28 247 58 227 189 32 83 100 92 153 356 32 153 226 63 24 345 253 184 171 149 150 154 166 144 157 152 134 81 82 156 96 135 218 89 143 155 234 116 248 104 230 203 233 227 150 156 241 192 200 219 253 319 30 206 191 187 229 326 358 160 144 160 169 175 164 160 167 168 185 191 154 144
231 228 228 228 216 211 220 223 218 174 121 110 86 89 157 267 178 176 201 134 131 126 132 127 110 232 357 23 248 273 30 85 69 107 148 136 145 154 164 147 152 155 134 162 183 210 189 193 195 271 285 348 141 239 212 217 240 243 235 172 220 216 167 247 36 209 267 65 9 216 264 45 49 15 36 89 150 179 174 179 176 167 159 153 144 101 10
225 224 229 226 215 213 213 215 215 167 129 103 112 143 182 254 223 166 174 126 131 108 168 146 178 104 39 264 124 164 178 142 160 151 168 160 156 152 155 112 353 180 172 175 194 224 189 205 176 214 124 197 166 188 208 189 252 265 236 198 204 199 209 217 178 246 119 137 114 97 63 56 72 111 103 182 192 182 141 118 82 85 110 104 69 83 122
225 220 216 221 225 218 214 211 218 162 141 154 177 177 187 193 216 167 163 145 132 123 133 109 198 88 237 188 203 231 154 164 120 122 130 155 134 129 60 194 189 177 184 172 213 177 214 203 212 196 171 195 171 164 204 243 247 246 234 194 198 228 289 202 168 189 141 160 133 74 34 331 245 214 239 184 172 136 118 110 88 89 90 75 64 61 61
222 222 217 215 215 219 213 206 218 164 176 180 178 59 54 48 124 147 144 138 108 158 192 187 174 206 143 234 126 326 163 98 59 124 181 193 165 128 148 141 85 108 257 179 204 196 217 205 189 217 215 159 149 185 220 228 238 249 250 237 214 146 225 241 328 209 192 216 221 234 239 199 225 217 35 111 122 134 134 125 117 108 104 108 109 101 97
220 219 218 214 213 214 218 211 204 172 152 115 210 220 231 70 112 142 141 120 123 178 94 137 201 181 221 359 73 260 155 167 176 165 169 187 153 135 177 150 194 176 229 196 213 191 346 124 203 208 183 208 181 195 235 235 238 245 245 240 218 171 225 226 215 220 214 181 57 55 325 337 14 55 96 119 122 101 93 105 134 129 132 134 147 146 139
216 216 216 216 214 213 216 216 193 132 153 198 199 20 148 161 152 166 157 159 140 351 138 269 179 196 193 21 151 231 147 129 163 181 165 176 88 139 170 150 216 205 219 113 236 203 210 207 161 203 214 149 199 218 227 238 238 240 245 243 135 176 191 239 245 221 135 138 192 230 57 344 126 159 173 167 156 156 149 169 188 152 150 177 160 155 161
211 211 211 210 211 224 191 52 71 151 184 198 194 158 163 174 157 176 206 221 122 173 162 201 183 204 200 214 182 248 111 170 217 50 144 139 52 341 106 152 209 213 331 181 205 193 218 143 187 222 192 206 212 204 223 230 242 246 247 240 200 194 206 215 232 189 163 151 131 88 108 144 227 226 97 113 133 167 166 160 182 226 167 138 162 162 162
204 207 205 191 79 49 213 201 168 186 217 133 163 161 163 129 31 46 18 358 305 60 146 182 180 192 201 213 101 279 120 182 184 87 267 139 173 240 103 183 208 175 87 148 198 215 214 173 221 219 215 223 218 218 227 231 238 244 243 238 229 196 209 217 220 172 151 146 115 81 138 185 190 133 159 181 186 179 170 192 191 175 182 189 178 180 186
199 199 148 103 160 171 209 212 198 197 140 130 113 70 355 14 140 145 180 134 265 99 340 74 176 230 16 183 216 213 171 213 60 160 205 239 110 288 203 179 213 208 209 220 217 159 70 211 207 220 234 233 236 236 228 230 237 241 247 245 232 192 199 206 164 143 161 189 253 233 197 190 217 215 186 200 181 187 205 208 197 202 193 174 177 164 134
188 153 64 199 181 190 188 223 157 139 121 52 55 88 74 208 129 90 223 199 90 166 215 200 216 148 166 201 241 343 165 175 142 213 170 217 140 255 123 146 257 139 315 230 258 153 211 212 207 230 244 234 240 236 236 238 236 240 242 243 235 206 190 183 176 183 192 209 215 204 189 199 211 219 206 202 207 230 219 182 194 204 191 159 157 161 136
122 150 160 182 201 195 124 153 143 133 105 113 319 126 192 273 138 200 167 80 181 251 191 206 193 178 188 194 191 225 180 116 136 189 171 250 21 171 231 111 270 117 210 197 232 163 160 195 194 221 235 230 242 235 234 233 240 244 245 246 240 215 184 181 196 204 207 215 221 216 206 214 213 209 195 197 194 194 204 207 204 181 174 172 162 164 178
172 144 152 194 170 145 167 137 87 46 103 104 75 14 84 358 277 206 110 173 180 221 170 178 121 150 227 185 188 196 133 79 2 94 125 171 219 94 66 171 245 105 241 201 242 85 122 201 212 220 221 230 239 233 228 233 236 242 241 242 237 218 191 199 203 205 210 221 228 227 216 216 220 217 199 192 190 195 198 195 188 187 172 160 170 178 153
180 174 141 101 91 103 82 19 47 115 80 218 137 188 173 206 55 30 167 160 205 187 243 164 176 191 203 176 197 185 230 160 145 115 138 196 238 133 208 126 10 119 197 194 100 48 148 186 219 228 217 228 238 235 229 230 239 244 249 249 247 224 203 205 213 219 213 214 219 223 220 216 218 217 202 192 194 197 193 179 173 177 181 174 141 129 153
125 111 111 102 69 37 96 139 241 139 143 167 142 202 169 107 208 157 221 231 309 96 241 47 312 85 5 58 26 12 183 177 158 231 112 196 111 52 112 99 125 140 217 40 83 156 159 186 223 229 224 235 236 237 228 223 240 253 257 264 254 218 211 222 230 233 233 232 234 235 239 237 224 223 210 194 188 179 175 185 183 172 160 158 164 149 147
97 91 71 344 109 282 126 198 179 62 8 171 164 187 158 148 230 62 132 216 189 165 214 140 200 129 162 166 157 170 42 349 99 88 23 326 85 177 160 194 204 245 51 37 172 169 200 204 214 219 229 230 246 253 235 232 232 239 257 251 215 188 202 217 226 244 244 237 250 259 278 262 245 273 163 185 181 186 182 159 150 148 147 140 150 159 138
115 37 61 52 141 220 118 253 63 132 186 219 176 183 165 184 188 173 183 230 114 187 160 126 142 150 164 228 44 324 160 195 292 114 220 146 71 279 130 225 207 48 118 197 165 325 358 263 244 236 246 258 248 236 226 234 228 225 238 290 285 235 216 212 223 220 228 219 222 217 226 226 210 210 206 199 206 188 165 169 164 153 159 156 147 140 159
138 157 132 146 192 203 171 165 102 196 270 141 190 188 173 192 152 186 230 126 141 145 147 175 155 141 139 252 151 193 129 121 82 231 175 67 138 215 216 124 71 102 36 86 197 212 210 217 220 227 222 230 238 242 230 229 228 219 134 246 249 229 222 226 234 228 232 228 214 200 228 195 209 198 195 180 158 157 160 139 152 161 154 146 160 160 158
80 40 98 133 152 218 75 149 222 200 164 173 198 169 185 182 185 163 166 166 166 177 140 128 139 169 158 186 112 346 36 130 150 221 90 65 190 246 17 110 214 175 165 206 205 216 234 231 227 228 227 232 238 243 241 242 208 201 228 243 259 249 215 220 228 227 221 169 185 198 208 201 204 182 145 130 144 150 134 134 139 150 156 155 145 134 134
136 151 98 134 192 153 164 221 160 60 320 149 182 171 161 119 111 185 244 155 136 119 127 129 111 75 37 299 69 184 174 255 160 252 162 201 41 43 101 67 276 265 183 192 220 207 222 228 220 229 233 229 232 244 256 267 262 246 248 252 251 246 222 212 220 219 184 187 199 198 193 180 173 175 185 170 98 99 139 144 140 140 132 132 138 139 135
107 117 150 186 201 165 185 117 140 165 201 336 318 131 134 142 194 167 135 253 157 165 162 129 179 109 189 140 136 189 276 239 119 216 72 29 128 199 164 205 194 216 238 176 218 206 215 221 229 236 260 313 9 4 334 357 348 320 295 289 291 303 292 254 242 217 180 188 185 182 180 162 146 153 132 132 133 150 141 130 136 128 142 147 150 149 145
77 7 36 81 62 338 274 24 78 184 265 334 82 177 199 174 176 157 229 112 301 112 96 74 93 100 196 113 104 127 234 240 171 9 73 210 197 204 85 177 232 191 234 212 223 228 218 14 7 325 347 9 360 1 341 333 335 317 312 309 317 315 285 247 222 175 189 188 182 174 159 148 172 171 161 159 135 110 113 129 137 139 138 148 146 144 143
4 75 144 319 172 202 139 165 178 191 193 211 201 197 180 186 169 172 295 142 147 110 80 150 177 108 110 38 76 81 241 163 73 159 167 200 171 118 186 213 226 209 232 215 189 20 28 341 357 343 328 333 336 329 324 311 310 305 314 350 360 15 15 53 160 165 169 156 150 147 159 172 166 146 136 116 122 129 119 98 108 134 131 133 141 141 140
110 125 234 219 93 23 337 300 10 34 184 182 132 285 354 145 258 168 303 160 150 158 183 179 98 107 93 171 213 187 26 45 250 65 76 261 167 145 210 202 227 216 232 222 3 349 354 350 314 302 298 277 290 305 301 298 301 324 338 318 146 148 156 152 163 163 153 142 162 166 151 132 113 112 123 134 138 141 147 155 155 147 141 137 128 124 117